Lapse_Rate
6.1 5.8 5.9 5.9 5.9 6.0 6.1 6.3 6.5 6.6 6.6 6.4 6.2 6.2 6.2 6.3 6.3 6.5 6.2 6.3 6.4 6.7 7.0 6.9 6.8 6.7 6.6 6.5 6.4 6.1 6.1 5.9 6.3 6.8 6.8 6.7 6.5 6.2 5.9 5.6 5.0 4.7 4.3
5.9 6.0 6.0 5.8 6.0 6.1 6.5 6.6 6.6 6.7 6.7 6.8 6.6 6.6 6.4 6.5 6.5 6.6 6.6 6.6 7.1 7.4 7.4 7.2 7.0 7.0 6.6 6.8 6.6 6.4 6.2 6.1 6.1 6.4 6.7 6.7 6.6 6.5 6.0 5.8 5.6 5.1 4.9
6.0 6.1 6.0 5.9 6.1 6.3 6.5 6.5 6.4 6.6 6.6 6.7 6.6 6.9 6.6 6.6 6.5 6.6 6.5 6.5 7.3 7.5 7.5 7.3 6.9 6.8 6.7 6.6 6.6 6.7 6.6 6.3 6.1 6.4 6.7 6.8 6.8 6.7 6.6 6.2 5.7 5.5 5.2
6.1 5.9 6.0 5.9 6.1 6.2 6.1 6.2 6.2 6.4 6.5 6.6 6.4 6.6 6.5 6.7 6.6 6.7 6.7 6.7 6.5 7.4 7.4 6.9 6.4 6.3 6.5 6.6 6.6 6.6 6.6 6.5 6.4 6.4 6.6 6.6 6.5 6.4 6.3 6.7 6.7 6.4 5.9
6.1 5.9 5.9 5.8 6.1 6.1 6.0 6.1 6.1 6.4 6.4 6.4 6.4 6.5 6.3 6.6 6.6 6.8 6.7 6.7 6.5 6.8 6.9 6.8 6.3 6.2 6.2 6.3 6.6 6.8 6.8 6.7 6.7 6.7 6.6 6.5 6.4 6.2 6.1 6.6 6.9 6.9 6.5
6.0 6.0 6.1 6.0 6.2 6.5 6.4 6.0 6.1 6.3 6.4 6.5 6.1 6.2 6.1 6.5 6.6 6.7 6.9 6.9 6.7 6.8 6.9 6.9 7.0 6.7 6.3 6.7 7.0 7.8 7.4 7.3 7.2 6.9 6.8 6.8 6.6 6.3 6.2 6.3 6.4 6.8 6.5
6.0 6.1 6.0 6.3 6.3 6.6 6.7 6.3 6.3 6.2 6.3 6.4 6.4 6.3 6.4 6.5 6.6 6.5 6.6 6.6 6.6 6.7 6.9 6.9 6.9 6.9 7.0 6.5 6.8 7.5 7.7 7.6 7.6 7.3 7.2 6.9 6.7 6.6 6.5 6.7 6.9 7.0 7.0
6.2 6.3 6.1 6.4 6.4 6.7 7.0 6.8 6.4 6.4 6.3 6.3 6.4 6.3 6.6 6.4 6.2 6.1 6.2 6.3 6.3 6.4 6.7 6.8 6.8 6.8 6.9 7.0 6.7 6.8 6.9 7.1 7.2 7.1 7.0 7.0 7.0 7.0 7.0 6.9 7.1 7.3 7.5
6.3 6.4 6.2 6.3 6.5 6.8 7.2 7.1 6.7 6.6 6.4 6.3 6.3 6.4 6.3 6.4 6.0 5.8 5.6 5.8 5.8 6.0 6.1 5.9 6.0 6.3 6.6 6.7 6.8 6.7 6.9 6.9 6.9 6.8 6.8 6.9 7.0 6.8 6.9 7.0 7.1 7.2 7.3
6.1 6.3 6.1 6.2 6.8 6.8 7.3 7.1 6.8 6.7 6.8 6.5 6.3 6.3 6.2 6.3 5.9 5.8 5.6 5.6 5.9 5.8 5.6 5.5 5.2 5.2 5.5 5.9 6.3 6.6 6.7 6.9 7.0 7.1 7.0 6.9 6.9 6.9 6.9 7.0 7.1 7.1 7.2
5.8 6.1 6.2 6.3 6.7 7.1 7.1 7.3 7.0 6.7 6.8 6.8 6.5 6.4 6.4 6.4 6.2 5.9 5.8 5.6 5.5 5.5 5.4 5.4 5.2 5.1 5.3 5.4 5.4 5.5 5.7 5.9 6.1 6.2 6.3 6.3 6.5 6.7 6.8 6.8 7.0 7.1 7.0
5.9 6.1 6.3 6.4 6.6 6.9 7.0 7.2 7.3 7.0 6.8 6.5 6.6 6.5 6.4 6.4 6.4 6.2 6.1 5.9 5.9 5.8 5.8 5.4 5.4 5.2 5.1 4.9 5.0 5.1 5.0 5.1 5.4 5.5 5.6 5.6 5.7 5.8 6.0 6.0 6.0 6.1 6.2
5.9 6.0 6.2 6.3 6.5 6.6 7.0 7.1 7.2 7.1 6.9 6.6 6.3 6.3 6.5 6.2 6.3 6.3 6.3 6.2 6.2 6.2 5.9 5.6 5.4 5.3 5.3 5.4 5.4 5.6 5.2 5.1 5.2 5.1 5.1 5.2 5.3 5.3 5.3 5.3 5.4 5.5 5.5
5.9 6.0 6.3 6.2 6.3 6.3 6.5 6.8 6.9 7.0 7.0 6.6 6.5 6.2 6.1 6.2 6.2 6.2 6.1 6.0 5.9 5.8 5.8 6.0 6.0 5.9 5.6 5.3 5.2 5.3 5.4 5.3 5.4 5.5 5.6 5.5 5.3 5.2 5.2 5.2 5.2 5.3 5.3
5.8 5.9 6.2 6.2 6.2 6.1 6.1 6.1 6.1 6.4 6.5 6.5 6.2 6.0 5.9 5.8 5.9 6.0 6.1 6.1 5.9 5.7 5.7 5.7 5.7 5.7 5.7 5.7 5.7 5.6 5.4 5.2 5.1 5.3 5.3 5.3 5.3 5.3 5.4 5.3 5.0 5.0 5.1
5.9 5.9 6.0 6.2 6.0 6.0 5.9 5.8 5.7 5.8 6.1 6.2 6.2 6.0 5.8 5.7 5.7 5.7 5.7 5.8 5.9 5.8 6.0 5.9 5.7 5.5 5.3 5.3 5.3 5.3 5.3 5.3 5.4 5.3 5.3 5.3 5.2 5.2 5.2 5.3 5.3 5.2 4.9
5.9 5.9 5.9 6.0 6.0 5.9 5.9 5.8 5.7 5.7 5.9 6.2 6.3 6.0 5.9 5.9 5.8 5.8 5.6 5.7 5.8 5.9 6.0 5.9 5.8 5.6 5.3 5.2 5.1 5.0 5.0 5.0 4.9 4.9 4.9 5.0 5.0 5.1 5.2 5.2 5.3 5.3 5.3
5.9 5.9 5.9 6.0 6.0 5.9 5.8 5.9 5.9 5.8 5.8 5.9 6.1 6.0 5.8 5.9 6.1 6.0 6.0 6.0 6.1 6.0 5.9 5.9 5.9 5.8 5.7 5.6 5.5 5.2 5.3 5.2 5.1 4.9 4.8 4.9 5.0 5.1 5.2 5.3 5.3 5.3 5.3
5.9 5.9 5.9 5.9 5.9 6.0 5.7 5.7 5.8 5.8 5.7 5.7 5.8 6.2 6.0 5.9 6.0 6.2 6.3 6.2 6.1 6.0 6.0 5.9 5.9 5.9 5.9 5.9 5.8 5.6 5.5 5.4 5.2 5.2 5.2 5.1 5.1 5.1 5.1 5.2 5.4 5.5 5.5
6.0 5.9 5.9 5.9 5.8 5.8 5.9 5.7 5.8 5.9 5.9 5.9 5.8 5.8 5.9 6.0 6.2 6.1 6.1 6.1 6.1 6.2 6.2 6.1 6.1 6.0 6.0 6.0 5.8 5.6 5.6 5.7 5.7 5.7 5.5 5.3 5.3 5.3 5.3 5.4 5.5 5.5 5.5
6.0 6.0 5.8 5.8 5.8 5.8 5.8 6.0 5.9 5.9 6.0 6.1 6.1 6.1 6.0 6.1 6.2 6.2 6.1 6.1 6.0 6.1 6.1 6.2 6.3 6.2 6.0 6.0 6.1 6.0 5.9 5.9 5.9 5.8 5.7 5.7 5.7 5.6 5.6 5.6 5.7 5.7 5.6
5.9 6.0 6.0 5.8 5.8 5.9 5.9 5.9 6.0 6.0 5.9 6.0 6.1 6.1 6.1 6.1 6.1 6.2 6.1 6.1 6.0 6.0 6.1 6.1 6.1 6.2 6.3 6.2 6.2 6.0 5.9 5.8 5.8 5.7 5.8 5.6 5.6 5.7 5.7 5.8 5.8 5.8 5.6
5.8 5.9 5.8 6.0 5.9 5.8 5.9 5.9 5.9 6.0 6.0 6.0 5.9 6.0 6.1 6.2 6.2 6.1 6.1 6.0 6.0 5.9 6.0 6.1 6.1 6.1 6.2 6.2 6.3 6.3 6.2 6.1 5.9 5.8 5.7 5.6 5.6 5.9 6.0 6.1 5.9 5.8 5.6
6.0 6.0 5.9 5.7 5.9 6.0 5.9 5.8 5.9 5.9 6.0 6.0 6.0 6.0 6.0 6.2 6.2 6.2 6.1 6.1 6.0 6.0 6.0 6.0 6.1 6.2 6.1 6.2 6.2 6.2 6.2 6.3 6.1 6.0 6.1 5.9 5.9 6.1 6.2 6.1 6.0 5.7 5.6
6.0 6.1 6.1 6.0 5.8 5.8 5.9 5.9 5.8 5.8 5.8 5.9 6.0 6.0 6.1 6.1 6.1 6.2 6.2 6.2 6.1 6.2 6.1 6.1 6.1 6.2 6.2 6.2 6.2 6.2 6.2 6.3 6.3 6.2 6.1 6.1 6.0 6.1 6.0 6.0 5.8 5.7 5.7
5.9 6.1 6.1 6.1 6.0 6.0 5.9 5.9 5.9 5.7 5.8 5.8 5.8 5.8 5.9 5.9 5.9 6.0 6.1 6.1 6.2 6.3 6.3 6.3 6.3 6.3 6.3 6.4 6.3 6.2 6.2 6.3 6.3 6.2 6.1 5.9 5.9 6.0 5.9 5.9 5.9 5.8 5.8
Wind_Speed
16 14 14 13 14 13 14 15 15 16 16 16 12 12 11 6 4 4 4 3 4 3 5 6 8 8 5 3 4 3 4 3 4 3 3 4 3 4 4 5 7 5 5
15 15 14 13 13 13 13 15 16 17 17 17 16 12 10 10 5 4 4 3 3 4 5 6 5 2 5 5 2 3 3 3 3 5 4 4 5 4 2 3 3 5 4
15 14 14 14 14 14 14 14 15 16 17 17 18 16 12 9 7 5 4 3 3 4 4 4 4 6 4 4 7 6 3 3 3 3 4 2 3 2 2 1 2 2 4
15 14 14 14 13 12 13 14 15 15 16 18 18 18 16 10 9 7 5 4 2 2 3 4 4 4 5 6 5 5 5 4 3 3 3 3 3 1 1 2 3 1 2
14 14 14 13 12 12 13 14 14 16 16 16 18 19 18 15 9 6 4 2 3 4 3 3 3 7 13 11 6 6 6 4 3 4 3 2 3 4 4 2 3 2 3
14 13 13 13 13 12 13 14 14 14 15 16 18 19 16 15 34 23 10 9 9 5 5 5 3 7 7 11 10 8 12 7 6 4 4 4 4 5 3 4 4 3 3
12 13 12 12 13 12 12 13 14 14 14 16 17 19 16 18 32 30 25 13 10 10 8 8 7 6 6 2 5 11 9 5 15 6 5 5 4 8 6 5 6 4 3
12 12 12 13 13 12 12 12 11 10 13 14 15 16 16 15 30 28 26 14 9 9 8 8 8 8 8 5 5 7 7 7 3 2 2 3 4 5 7 4 5 3 2
13 13 12 12 12 13 13 12 12 12 10 12 14 15 17 16 27 26 17 13 14 15 10 9 8 10 17 15 8 7 7 7 11 18 14 8 4 10 9 4 4 6 2
14 13 11 11 10 11 12 12 11 10 11 11 9 13 19 14 25 25 18 9 12 10 12 11 24 15 20 19 10 8 9 6 8 9 9 10 11 11 10 2 3 5 3
13 11 11 10 9 11 11 9 10 10 9 12 12 8 12 15 16 26 24 10 8 8 9 10 11 22 22 20 14 7 9 8 10 7 7 6 6 6 5 5 6 4 4
12 11 10 10 7 8 11 11 8 9 10 11 11 10 8 9 22 23 25 22 19 9 10 8 11 23 25 23 16 21 19 13 6 6 6 6 6 6 6 6 6 6 5
12 11 10 9 7 8 8 10 10 12 9 10 8 9 10 7 5 22 23 22 20 9 8 15 20 21 21 16 22 19 15 6 5 6 5 5 3 4 4 3 4 6 7
12 11 9 8 9 8 6 7 8 9 11 10 9 9 8 9 8 7 7 7 15 11 13 9 14 16 18 14 10 10 6 5 5 4 3 3 3 3 4 3 3 3 3
11 9 9 7 7 7 6 4 6 8 11 8 8 7 10 10 11 16 14 8 7 11 10 7 7 6 8 7 6 7 6 6 5 4 4 4 4 3 3 3 3 3 3
11 8 8 6 6 6 6 7 11 12 17 19 20 14 7 17 18 19 19 21 19 16 6 6 7 7 7 7 6 5 4 7 4 4 4 4 4 4 3 3 3 3 2
10 8 7 7 6 6 5 6 7 7 12 15 18 19 19 19 19 19 18 17 20 13 7 7 7 6 6 6 5 4 4 3 3 3 3 4 4 4 4 3 3 2 2
8 14 5 5 5 5 5 5 4 5 7 7 12 14 18 18 18 19 18 12 8 9 5 5 6 6 5 5 5 5 5 5 4 4 4 4 3 3 3 4 3 2 2
6 5 4 4 4 6 4 5 5 6 6 5 6 11 16 17 15 16 17 6 5 6 7 6 6 5 5 5 5 5 4 4 4 3 4 3 4 3 3 3 3 6 4
5 12 9 4 4 5 5 5 5 6 5 5 6 6 6 7 8 9 7 6 6 6 6 6 6 5 5 5 5 5 4 4 5 4 4 5 4 4 4 4 4 3 3
4 4 10 4 4 4 4 4 4 4 5 5 5 7 17 6 6 6 6 6 6 6 7 6 6 5 5 5 4 5 5 5 5 5 4 4 4 4 4 4 4 3 3
4 4 4 4 4 4 4 4 4 4 4 5 5 6 16 6 6 6 6 6 6 5 5 5 6 6 5 5 5 6 5 5 5 5 4 4 4 3 3 4 4 4 4
5 5 4 3 4 7 4 4 4 4 4 4 5 5 6 6 6 6 7 6 6 5 10 8 5 6 10 10 9 5 5 5 4 4 4 4 4 3 3 3 4 5 4
5 5 5 4 4 4 4 4 4 6 5 4 5 5 5 5 5 6 6 6 6 10 12 11 10 9 11 12 13 13 11 11 11 7 6 4 4 5 4 4 4 5 5
5 5 5 4 4 3 4 4 4 4 4 4 4 4 5 5 6 6 6 6 8 8 11 13 13 15 15 17 18 19 19 18 15 12 10 5 6 6 4 4 4 4 6
5 6 5 5 5 4 3 3 4 4 4 4 4 4 4 4 5 5 6 5 5 8 12 13 16 19 20 18 19 20 20 20 17 15 12 6 5 4 4 6 7 4 5
Wind_Direction
346 341 342 338 341 344 349 350 349 345 343 344 341 346 325 299 296 298 285 272 230 298 236 222 215 210 201 193 198 191 193 158 175 238 228 209 216 209 211 216 225 232 227
343 342 344 342 344 348 348 346 349 351 349 350 341 337 336 331 282 264 279 304 251 254 213 247 237 251 223 241 191 177 176 167 150 191 211 214 203 221 213 214 229 231 240
345 345 345 346 348 349 351 348 349 351 350 348 347 341 341 333 320 276 251 250 237 215 216 234 235 222 228 231 229 237 198 181 171 150 210 212 215 202 211 220 225 249 252
345 346 346 347 346 348 350 350 349 347 350 348 352 344 348 333 282 236 229 223 245 279 249 216 247 230 215 220 234 214 204 196 184 193 197 214 208 215 252 200 254 217 284
345 346 345 344 348 352 354 351 348 352 350 347 352 356 358 10 4 120 162 190 97 358 315 295 250 235 240 221 228 209 198 196 180 187 208 176 185 211 211 201 233 245 246
343 344 341 347 350 355 353 354 356 352 353 355 356 358 11 28 44 47 45 37 42 19 336 311 277 294 295 291 285 258 209 193 195 180 199 203 201 210 191 214 208 215 263
342 340 343 348 350 352 353 353 353 354 360 359 360 1 7 35 40 47 53 54 47 40 24 16 14 4 317 20 5 32 38 312 218 187 199 206 195 204 201 208 216 221 214
342 339 344 348 346 348 354 347 349 0 7 7 2 0 9 27 41 37 36 34 34 41 38 33 27 22 36 76 74 73 54 21 55 61 232 236 218 183 195 182 180 147 117
345 340 343 343 343 349 356 348 356 15 10 8 10 5 8 11 45 39 32 30 28 24 22 71 51 51 57 64 64 70 64 41 35 55 68 46 283 257 201 164 170 163 149
344 339 338 341 344 345 349 0 357 3 16 17 14 12 9 6 30 46 37 29 31 24 27 25 47 61 65 63 52 48 52 42 40 33 28 26 28 35 67 78 171 172 129
338 338 342 344 342 349 343 16 5 357 7 21 21 14 16 9 15 37 46 32 27 29 27 18 28 52 53 59 72 73 69 48 37 38 36 28 27 30 31 50 63 81 97
341 341 344 343 345 349 351 14 20 6 357 11 8 14 22 16 25 29 40 42 38 28 33 28 37 38 41 57 55 57 59 50 39 39 38 30 26 28 26 38 54 65 61
344 345 345 343 347 349 348 349 22 22 22 9 7 10 9 24 10 29 32 37 42 38 30 42 42 44 44 38 47 49 45 30 31 35 31 25 15 3 20 43 48 55 63
346 344 345 351 359 348 343 348 7 17 22 24 10 10 9 10 24 29 18 19 21 29 24 26 37 39 44 43 38 29 22 32 39 29 14 359 355 15 30 10 22 20 48
347 343 349 351 347 347 350 343 1 6 25 18 24 11 18 20 22 28 36 32 35 34 27 22 21 20 23 21 21 21 14 22 21 6 16 12 21 19 23 1 19 31 70
352 347 351 351 350 353 355 350 2 22 18 23 26 33 21 26 25 33 35 38 38 32 26 21 19 16 18 11 12 6 10 18 3 10 13 14 16 11 16 10 25 35 36
352 341 347 359 353 355 354 5 358 347 17 18 20 19 28 29 27 31 33 35 35 30 28 16 15 8 2 0 357 359 356 347 351 17 11 3 359 3 17 1 355 359 360
342 358 357 346 350 355 360 359 356 357 0 360 2 15 17 25 28 32 28 28 21 17 19 6 3 357 354 351 349 354 347 353 7 10 8 357 354 351 348 351 337 353 347
346 342 1 355 350 8 356 355 3 3 3 358 356 13 12 11 22 33 30 32 6 2 358 358 354 352 347 341 342 346 346 356 3 350 343 337 335 339 338 342 353 15 27
342 356 11 13 1 359 2 4 3 2 358 358 7 357 350 358 17 9 8 7 10 1 350 347 342 339 343 344 345 346 344 354 358 358 347 346 350 355 2 3 9 2 7
326 339 7 18 18 7 3 5 358 358 3 357 346 356 20 19 357 359 358 2 358 352 347 345 343 345 344 339 338 348 350 348 358 354 351 346 349 4 0 359 15 22 24
329 349 9 6 354 14 15 0 359 0 358 357 348 348 9 15 1 360 358 356 347 338 336 334 342 346 343 345 345 349 352 356 355 354 356 1 2 9 16 12 12 25 30
338 342 12 13 6 7 11 14 1 358 354 352 346 354 358 358 355 355 353 347 344 346 349 349 345 351 353 346 347 344 348 349 349 344 354 11 9 19 16 26 19 29 12
350 345 347 4 16 12 359 357 360 4 353 351 354 352 351 349 348 347 347 344 349 350 354 355 354 352 353 357 358 2 8 12 10 17 25 18 25 15 24 30 27 26 35
359 356 349 347 358 19 358 352 351 353 351 349 346 349 342 345 349 351 348 348 349 353 353 356 358 356 360 4 7 10 15 27 33 29 31 41 40 22 23 36 25 31 37
5 358 351 345 341 346 15 13 349 343 344 342 340 338 339 340 338 341 345 349 351 350 353 356 359 6 8 7 9 17 20 22 28 39 47 34 41 34 19 33 32 38 42